Location: Unspecified
(50.7693°N, 0.0000°E)
Time: 08:45:50
(UTC+00:00)

Transit 4A - Pass Details

Date: 29 June 2019
Orbit: 862 x 982 km, 66.8° (Epoch: 21 July)

Event Time Altitude Azimuth Distance (km) Brightness Sun altitude
Rises 13:44:48 0° 321° (NW) 3,697 11.0 56.2°
Reaches altitude 10° 13:47:32 10° 328° (NNW) 2,743 10.4 55.9°
Maximum altitude 13:53:41 45° 40° (NE) 1,303 8.9 55.2°
Drops below altitude 10° 13:59:41 10° 113° (ESE) 2,682 10.3 54.4°
Sets 14:02:20 0° 119° (ESE) 3,608 10.8 54.1°
